Weather in Khamney

Russia / Republic of Buryatia     50°24′09″N   103°52′03″E
temp.,
°C
wind,
m/s
gust,
m/s
humid.,
%
clouds,
%
prec.,
mm/h
press.,
hPa
HPBL,
m
19 may, wed
wed1923:00+5ne1194100 0.0 100210
02:00+4nnw11965 0.0 100110
05:00+4nnw1197100 0.0 100118
08:00+9nne127121 0.0 1001507
11:00+11ene116099 0.1 10011155
14:00+15ese234460 0.1 9991538
17:00+13ese455982 0.6 999901
20:00+10e2375100 0.7 999172
20 may, thu
thu2023:00+6e229635 2.6 100023
02:00+5sse119686 2.6 99910
05:00+4ne119642 0.0 99710
08:00+10s007778 0.0 994239
11:00+17wnw3449100 0.0 9931169
14:00+18n2342100 0.0 9921485
17:00+13e486873 1.7 991805
20:00+6n2492100 6.8 997250
21 may, fri
fri2123:00+6nne1392100 5.1 996344
02:00+5nne239294 5.4 995325
05:00+4nnw2391100 0.2 996296
08:00+4n1182100 0.2 997302
11:00+10nnw146716 0.1 996819
14:00+9nnw666334 0.9 996874
17:00+5nne455687 0.3 10041207
20:00+3n495589 0.4 10081155
22 may, sat
sat2223:00−2wnw22698 0.0 101436
02:00−3nw2370100 0.0 101585
05:00−3wnw1172100 0.0 101626
08:00+2nw2754100 0.0 10151496
11:00+5nnw5937100 0.4 10142580
14:00+7nnw61031100 0.5 10142967
17:00+7n6113589 0.0 10162494
20:00+4nw494742 0.0 10181403
23 may, sun
sun2323:00−1wnw2371100 0.0 102350
02:00−2nw227619 0.0 102536
05:00−3nw22804 0.0 102625
08:00+3wnw23505 0.0 1024544
11:00+9w2627100 0.0 10203115
14:00+10wnw3622100 0.0 10173260
17:00+11wnw3723100 0.0 10152997
20:00+7n2243100 0.0 101641